CZ-6A DEB, 54358

Orbit data source: Space-Track

CZ-6A DEB, 54358 is space debris in SSO originally from a launch on Fri, 11 Nov 2022 UTC launched from the Taiyaun Space Center, China (TSC). Debris objects in space refer to the collection of defunct objects orbiting the Earth. Examples of debris include non-operational satellites, rocket bodies, and fragments generated from explosions, collisions, or faulty payload assembly.

Loading next visibility...
Identifier
54358, 2022-151DD
Orbit
SSO
Country
Flag of CNCN / PRC
Related business
Manufacturer
SAST
Mission
Spacecraft
Bus & Motor
Unknown
Mass
Unknown
Launch date (UTC)
2022-11-11 (4 years ago)
Launch vehicle
Unknown
Launch site
Taiyaun Space Center, China (TSC)
Object type
Payload
Rocket body
Debris
Shape & HBR
Unknown shape, 0.1 m
Radar Cross Section
Medium (>0.1 m² and <1 m²)

Expand to show TLE details & history
Last TLE update: 16 hours ago

TLE from 16 hours ago
0 CZ-6A DEB
1 54358U 22151DD  26207.17452525  .00013800  00000-0  13326-2 0  9993
2 54358  98.4523 285.0972 0078481   5.8496 354.3618 14.90648798197778
Epoch: 2026-07-26T04:11Z
TLE epoch observation values (Epoch: 2026-07-26T04:11:18.981Z)
Latitude
-0.00003°
Longitude
-81.60812°
Altitude
544.455 km
Speed
7.62 km/s
True Right ascension
19h 00m 23s
True Declination
0° 00' 00"
Sunlit
Object was in full shadow at epoch
Visualization orbit readout
Latitude
Unknown
Longitude
Unknown
Altitude
Unknown
Speed
Unknown
Apparent Right ascension
Unknown
Apparent Declination
Unknown
Sunlit
N/A
Visualization observer readout
Local Sidereal Time
09:23:42
Azimuth
Unknown
Elevation
Unknown
Doppler factor
Unknown
Orbital elements
Apogee altitude
647.673 km
Perigee altitude
538.253 km
Semi-major axis
6,971.1 km
Eccentricity
0.00785
Inclination
98.4523°
RAAN
285.0972°
Arg. of periapsis
5.8496°
True anomaly
354.27257°
Mean anomaly
354.3618°
Eccentric anomaly
354.31727°
Mean motion
3.72899 °/min
Orbital period
96.54 mins
BSTAR
0.0013326
Loading maneuver chart data...
Computing Atmospheric mass density...

Documentation

Showing up to 5 results
|